Date String (YYYY-MM-DD hh:mm:ss) UTC,Instrument flags,Ambient pressure (hPa),Sample flow (lpm),Bypass flow (lpm),Sample temperature (°C),Ambient temperature (°C),ASC tube jacket temperature (°C),LED temperature (°C),Box temperature (°C),Sample RH (%),Span deviation,Mass concentration (μg/m³),Mass concentration (μg/m³),Mass concentration (μg/m³)
DateTimeUTC,F1_M11,P_M11,Q1_M11,Q2_M11,T1_M11,T2_M11,T3_M11,T4_M11,T5_M11,U1_M11,ZSPAN_M11,X0_M11,X2_M11,X1_M11
2023-02-21 19:00:00,,0804.8,4.99,0.00,23.0,22.1,00.0,31.7,24.9,16.0,0000.0,0007.70,0002.05,0001.34
2023-02-21 19:01:00,,0804.5,5.00,0.00,23.0,22.1,00.0,31.7,25.0,14.4,0000.0,0007.90,0002.16,0001.47
2023-02-21 19:02:00,,0804.5,5.00,0.00,23.1,22.1,00.0,31.7,25.0,13.7,0000.0,0008.15,0002.19,0001.49
2023-02-21 19:03:00,,0804.5,5.00,0.00,23.1,22.1,00.0,31.7,25.0,13.4,0000.0,0009.04,0002.24,0001.53
2023-02-21 19:04:00,,0804.4,5.00,0.00,23.1,22.1,00.0,31.8,25.0,12.5,0000.0,0009.12,0002.26,0001.51
2023-02-21 19:05:00,,0804.4,5.00,0.00,23.1,22.1,00.0,31.8,25.0,12.8,0000.0,0009.35,0002.29,0001.51
2023-02-21 19:06:00,,0804.5,5.01,0.00,23.1,22.2,00.0,31.8,25.0,12.8,0000.0,0009.47,0002.30,0001.53
2023-02-21 19:07:00,,0804.1,5.01,0.00,23.1,22.2,00.0,31.8,25.1,12.3,0000.0,0009.94,0002.30,0001.53
2023-02-21 19:08:00,,0804.0,4.97,0.00,23.2,22.2,00.0,31.8,25.0,12.1,0000.0,0010.14,0002.37,0001.52
2023-02-21 19:09:00,,0804.1,4.99,0.00,23.2,22.1,00.0,31.8,25.0,11.9,0000.0,0010.07,0002.38,0001.43
2023-02-21 19:10:00,,0804.0,4.99,0.00,23.2,22.1,00.0,31.9,25.0,11.7,0000.0,0009.14,0002.09,0001.18
2023-02-21 19:11:00,,0804.1,5.00,0.00,23.2,22.1,00.0,31.9,25.0,11.8,0000.0,0008.19,0001.83,0000.93
2023-02-21 19:12:00,,0804.0,5.00,0.00,23.2,22.1,00.0,31.9,25.0,11.9,0000.0,0007.79,0001.65,0000.72
2023-02-21 19:13:00,,0803.9,5.01,0.00,23.2,22.1,00.0,31.9,25.0,12.0,0000.0,0007.19,0001.51,0000.65
2023-02-21 19:14:00,,0803.9,5.01,0.00,23.2,22.1,00.0,31.9,25.0,11.9,0000.0,0005.43,0001.45,0000.58
2023-02-21 19:15:00,,0804.0,5.01,0.00,23.2,22.1,00.0,31.9,25.0,11.5,0000.0,0005.23,0001.41,0000.56
2023-02-21 19:16:00,,0804.1,4.99,0.00,23.2,22.1,00.0,32.0,25.0,11.5,0000.0,0004.68,0001.35,0000.55
2023-02-21 19:17:00,,0804.0,5.00,0.00,23.2,22.1,00.0,32.0,25.0,11.6,0000.0,0004.57,0001.35,0000.52
2023-02-21 19:18:00,,0803.9,4.99,0.00,23.2,22.1,00.0,32.0,25.0,11.6,0000.0,0003.54,0001.35,0000.50
2023-02-21 19:19:00,,0803.9,5.01,0.00,23.3,22.1,00.0,32.0,25.1,11.7,0000.0,0003.16,0001.27,0000.49
2023-02-21 19:20:00,,0803.7,5.00,0.00,23.3,22.1,00.0,32.0,25.1,11.8,0000.0,0002.78,0001.12,0000.47
2023-02-21 19:21:00,,0803.7,5.00,0.00,23.3,22.1,00.0,32.0,25.1,11.5,0000.0,0002.62,0001.08,0000.47
2023-02-21 19:22:00,,0803.5,5.01,0.00,23.3,22.1,00.0,32.0,25.1,11.8,0000.0,0002.83,0001.14,0000.48
2023-02-21 19:23:00,,0803.7,5.01,0.00,23.3,22.1,00.0,32.0,25.1,11.6,0000.0,0003.50,0001.26,0000.49
2023-02-21 19:24:00,,0803.7,5.00,0.00,23.3,22.1,00.0,32.0,25.1,11.5,0000.0,0004.18,0001.33,0000.50
2023-02-21 19:25:00,,0803.4,5.00,0.00,23.3,22.1,00.0,32.1,25.1,11.4,0000.0,0004.75,0001.35,0000.50
2023-02-21 19:26:00,,0803.3,4.99,0.00,23.3,22.1,00.0,32.1,25.1,11.5,0000.0,0005.36,0001.33,0000.50
2023-02-21 19:27:00,,0803.5,5.00,0.00,23.3,22.1,00.0,32.1,25.1,11.6,0000.0,0005.52,0001.33,0000.50
2023-02-21 19:28:00,,0803.4,4.98,0.00,23.3,22.1,00.0,32.1,25.2,11.6,0000.0,0006.02,0001.34,0000.49
2023-02-21 19:29:00,,0803.4,5.00,0.00,23.3,22.2,00.0,32.1,25.1,11.9,0000.0,0006.84,0001.38,0000.49
2023-02-21 19:30:00,,0803.4,4.98,0.00,23.3,22.2,00.0,32.1,25.2,11.7,0000.0,0006.87,0001.38,0000.49
2023-02-21 19:31:00,,0803.4,5.01,0.00,23.3,22.2,00.0,32.1,25.2,11.5,0000.0,0006.99,0001.43,0000.50
2023-02-21 19:32:00,,0803.4,5.00,0.00,23.3,22.2,00.0,32.1,25.2,11.6,0000.0,0006.87,0001.39,0000.49
2023-02-21 19:33:00,,0803.3,5.01,0.00,23.3,22.2,00.0,32.1,25.2,11.5,0000.0,0006.79,0001.38,0000.50
2023-02-21 19:34:00,,0803.2,5.01,0.00,23.3,22.2,00.0,32.1,25.2,11.8,0000.0,0005.96,0001.25,0000.49
2023-02-21 19:35:00,,0803.2,5.00,0.00,23.3,22.2,00.0,32.1,25.2,11.7,0000.0,0005.36,0001.21,0000.49
2023-02-21 19:36:00,,0803.3,5.01,0.00,23.4,22.2,00.0,32.1,25.2,11.6,0000.0,0004.62,0001.22,0000.49
2023-02-21 19:37:00,,0803.4,4.99,0.00,23.4,22.2,00.0,32.1,25.2,11.7,0000.0,0004.19,0001.26,0000.49
2023-02-21 19:38:00,,0803.4,5.00,0.00,23.4,22.2,00.0,32.1,25.2,11.6,0000.0,0004.10,0001.28,0000.50
2023-02-21 19:39:00,,0803.4,4.99,0.00,23.4,22.2,00.0,32.2,25.2,11.6,0000.0,0003.66,0001.24,0000.50
2023-02-21 19:40:00,,0803.4,5.00,0.00,23.4,22.2,00.0,32.2,25.2,11.7,0000.0,0002.68,0001.17,0000.50
2023-02-21 19:41:00,,0803.4,5.00,0.00,23.4,22.3,00.0,32.2,25.2,11.6,0000.0,0002.85,0001.17,0000.50
2023-02-21 19:42:00,,0803.4,5.01,0.00,23.4,22.3,00.0,32.2,25.2,11.6,0000.0,0002.90,0001.16,0000.50
2023-02-21 19:43:00,,0803.4,4.98,0.00,23.4,22.3,00.0,32.2,25.2,11.8,0000.0,0002.93,0001.18,0000.50
2023-02-21 19:44:00,,0803.4,5.00,0.00,23.4,22.3,00.0,32.2,25.3,11.7,0000.0,0003.40,0001.18,0000.50
2023-02-21 19:45:00,,0803.4,5.00,0.00,23.4,22.3,00.0,32.2,25.3,11.7,0000.0,0005.04,0001.22,0000.50
2023-02-21 19:46:00,,0803.3,5.00,0.00,23.4,22.3,00.0,32.2,25.2,11.6,0000.0,0005.49,0001.20,0000.50
2023-02-21 19:47:00,,0803.4,5.00,0.00,23.5,22.3,00.0,32.2,25.2,11.7,0000.0,0005.65,0001.22,0000.52
2023-02-21 19:48:00,,0803.4,4.99,0.00,23.5,22.3,00.0,32.2,25.2,11.5,0000.0,0006.56,0001.35,0000.54
2023-02-21 19:49:00,,0803.5,5.00,0.00,23.5,22.3,00.0,32.3,25.3,11.3,0000.0,0006.65,0001.36,0000.55
2023-02-21 19:50:00,,0803.6,5.00,0.00,23.5,22.3,00.0,32.3,25.3,11.2,0000.0,0006.86,0001.42,0000.55
2023-02-21 19:51:00,,0803.6,5.01,0.00,23.5,22.3,00.0,32.3,25.2,11.3,0000.0,0007.32,0001.39,0000.55
2023-02-21 19:52:00,,0803.5,5.00,0.00,23.5,22.3,00.0,32.3,25.2,11.5,0000.0,0007.19,0001.41,0000.56
2023-02-21 19:53:00,,0803.4,5.00,0.00,23.5,22.3,00.0,32.3,25.2,11.4,0000.0,0007.07,0001.42,0000.56
2023-02-21 19:54:00,,0803.3,5.01,0.00,23.5,22.3,00.0,32.3,25.3,11.5,0000.0,0007.19,0001.46,0000.57
2023-02-21 19:55:00,,0803.4,5.01,0.00,23.6,22.3,00.0,32.3,25.2,11.4,0000.0,0007.14,0001.45,0000.57
2023-02-21 19:56:00,,0803.4,4.98,0.00,23.6,22.3,00.0,32.4,25.3,11.6,0000.0,0005.19,0001.41,0000.58
2023-02-21 19:57:00,,0803.4,5.02,0.00,23.6,22.4,00.0,32.4,25.4,11.5,0000.0,0004.91,0001.48,0000.59
2023-02-21 19:58:00,,0803.2,4.98,0.00,23.6,22.3,00.0,32.4,25.3,11.4,0000.0,0004.91,0001.51,0000.57
2023-02-21 19:59:00,,0803.2,5.00,0.00,23.6,22.3,00.0,32.4,25.3,11.3,0000.0,0004.25,0001.42,0000.54
